This is the latest recevied weather packets stored in our database for station/object SV9TNF-54. If no packets are shown the sender has not sent any weather packets the latest 10 day(s).
| Time | Temp. | Humidity | Pressure | Rain* | Wind** | Luminosity | Snow |
|---|---|---|---|---|---|---|---|
| 1788142056 | 29.44° C | 39% | 1013.9 hPa | 0 mm | 29.06 m/s, 352° | - | - |
| 1788141755 | 29.44° C | 39% | 1013.9 hPa | 0 mm | 29.06 m/s, 352° | - | - |
| 1788141455 | 29.44° C | 39% | 1013.9 hPa | 0 mm | 29.06 m/s, 352° | - | - |
| 1788141155 | 29.44° C | 39% | 1013.9 hPa | 0 mm | 29.06 m/s, 352° | - | - |
| 1788140855 | 29.44° C | 39% | 1013.9 hPa | 0 mm | 29.06 m/s, 352° | - | - |
| 1788140555 | 29.44° C | 39% | 1014.2 hPa | 0 mm | 30.4 m/s, 18° | - | - |
| 1788140255 | 29.44° C | 39% | 1014.2 hPa | 0 mm | 30.4 m/s, 18° | - | - |
| 1788139955 | 29.44° C | 39% | 1014.2 hPa | 0 mm | 30.4 m/s, 18° | - | - |
| 1788139655 | 29.44° C | 38% | 1014.2 hPa | 0 mm | 33.98 m/s, 11° | - | - |
| 1788139355 | 29.44° C | 38% | 1014.2 hPa | 0 mm | 33.98 m/s, 11° | - | - |
| 1788139054 | 29.44° C | 38% | 1014.2 hPa | 0 mm | 33.98 m/s, 11° | - | - |
| 1788138754 | 29.44° C | 38% | 1014.2 hPa | 0 mm | 33.98 m/s, 11° | - | - |
| 1788138454 | 29.44° C | 38% | 1014.2 hPa | 0 mm | 33.98 m/s, 11° | - | - |
| 1788138154 | 29.44° C | 38% | 1014.2 hPa | 0 mm | 32.19 m/s, 13° | - | - |
| 1788137854 | 29.44° C | 37% | 1014.2 hPa | 0 mm | 33.98 m/s, 20° | - | - |
| 1788137554 | 29.44° C | 37% | 1014.2 hPa | 0 mm | 33.98 m/s, 20° | - | - |
| 1788137254 | 29.44° C | 37% | 1014.2 hPa | 0 mm | 33.98 m/s, 20° | - | - |
| 1788136954 | 29.44° C | 37% | 1014.2 hPa | 0 mm | 33.98 m/s, 20° | - | - |
| 1788136654 | 29.44° C | 37% | 1014.2 hPa | 0 mm | 33.98 m/s, 20° | - | - |
| 1788136354 | 29.44° C | 37% | 1014.2 hPa | 0 mm | 33.98 m/s, 20° | - | - |
| 1788136060 | 30° C | 37% | 1014.6 hPa | 0 mm | 22.35 m/s, 352° | - | - |
| 1788135753 | 30° C | 37% | 1014.6 hPa | 0 mm | 22.35 m/s, 352° | - | - |
| 1788135453 | 30° C | 37% | 1014.6 hPa | 0 mm | 22.35 m/s, 352° | - | - |
| 1788135153 | 30° C | 37% | 1014.6 hPa | 0 mm | 22.35 m/s, 352° | - | - |
| 1788134854 | 30° C | 37% | 1014.6 hPa | 0 mm | 22.35 m/s, 352° | - | - |
* Rain latest hour (hover to see other rain measurements)
** Current wind speed in m/s (hover to see current wind gust speed)